User: anonymous   Login
Location: Fort Wayne
(41.1310°N, 85.1290°W)
Time: 16:47:15
(UTC-04:00)
Language:

SR - Orbit

View from above orbital plane
View from above orbital plane
View from above satellite
View from above satellite

Ground track
Ground track

The orbit data is extracted from the following two-line orbital elements,

1    46U 60007B   17207.92924398 +.00000003 +00000-0 +23740-4 0  9999
2    46 066.6906 020.7841 0213683 200.5658 158.6754 14.49048636986011
Epoch (UTC): 26 July 2017 22:18:06
Eccentricity: 0.0213683
inclination: 66.6906°
perigee height: 577 km
apogee height: 880 km
right ascension of ascending node: 20.7841°
argument of perigee: 200.5658°
revolutions per day: 14.49048636
mean anomaly at epoch: 158.6754°
orbit number at epoch: 98601

The dashed part of the orbit path shows where the satellite is in the earth's shadow,  

DLR